Clearfield, PA

12:36 AM EDT on August 22, 2017 (GMT -0400)
Clearfield-Lawrence

Weather History for KFIG - January, 2013

Change the Weather History Date:

Monday, January 21, 2013

  Actual Average (KDUJ) Record (KDUJ)
Temperature  
Mean Temperature 16 °F -  
Max Temperature 21 °F 28 °F 62 °F (2017)
Min Temperature 10 °F 15 °F -22 °F (1985)
Degree Days  
Heating Degree Days 50    
Moisture  
Dew Point 12 °F    
Average Humidity 76    
Maximum Humidity 89    
Minimum Humidity 59    
Precipitation  
Precipitation 0.00 in - - ()
Sea Level Pressure  
Sea Level Pressure 29.92 in    
Wind  
Wind Speed 7 mph (WSW)    
Max Wind Speed 16 mph    
Max Gust Speed 25 mph    
Visibility 5 miles    
Events Fog , Snow    
Averages and records for this station are not official NWS values.
T = Trace of Precipitation, MM = Missing Value Source: NWS Daily Summary

Daily Weather History Graph

Daily Weather History Graph

Search for Another Location

Airport or City:

Trip Planner

Search our weather history database for the weather conditions in past years. The results will help you decide how hot, cold, wet, or windy it might be!

Date:

Astronomy

Jan. 21, 2013 Rise Set
Actual Time 7:33 AM EST 5:17 PM EST
Civil Twilight 7:03 AM EST 5:47 PM EST
Nautical Twilight 6:29 AM EST 6:20 PM EST
Astronomical Twilight 5:56 AM EST 6:53 PM EST
Moon 12:55 PM EST (1/21) 2:59 AM EST (1/21)
Length of Visible Light 10h 43m
Length of Day
9h 44m
Waxing Gibbous, 75% of the Moon is Illuminated
Jan 21
Waxing Gibbous
Jan 26
Full
Feb 3
Last Quarter
Feb 10
New
Feb 17
First Quarter

Hourly Weather History & Observations

Time (EST) Temp. Windchill Dew Point Humidity Pressure Visibility Wind Dir Wind Speed Gust Speed Precip Events Conditions
12:54 AM 19.0 °F 8.2 °F 7.0 °F 59% 30.07 in 10.0 mi WSW 9.2 mph - N/A   Clear
1:54 AM 19.0 °F 9.0 °F 7.0 °F 59% 30.08 in 10.0 mi WSW 8.1 mph - N/A   Clear
2:54 AM 18.0 °F 11.1 °F 8.1 °F 65% 30.08 in 10.0 mi WSW 4.6 mph - N/A   Clear
3:54 AM 18.0 °F 9.8 °F 9.0 °F 68% 30.06 in 10.0 mi SSW 5.8 mph - N/A   Clear
4:54 AM 19.0 °F 11.1 °F 8.1 °F 62% 30.05 in 10.0 mi SSW 5.8 mph - N/A   Overcast
5:54 AM 19.0 °F 11.1 °F 9.0 °F 65% 30.05 in 10.0 mi SW 5.8 mph - N/A   Overcast
6:54 AM 19.0 °F 11.1 °F 10.0 °F 68% 30.04 in 10.0 mi SSW 5.8 mph - N/A   Overcast
7:14 AM 19.4 °F 11.5 °F 10.4 °F 68% 29.96 in 10.0 mi SW 5.8 mph - N/A   Overcast
7:54 AM 19.0 °F 10.0 °F 12.0 °F 74% 30.03 in 10.0 mi SW 6.9 mph - N/A   Overcast
8:23 AM 19.4 °F 11.5 °F 12.2 °F 74% 29.95 in 9.0 mi SSW 5.8 mph - 0.00 in Snow Light Snow
8:54 AM 19.9 °F 12.1 °F 12.0 °F 71% 30.02 in 10.0 mi SW 5.8 mph - 0.00 in Snow Light Snow
9:54 AM 19.9 °F 9.3 °F 12.9 °F 74% 30.02 in 3.0 mi SW 9.2 mph - 0.00 in Snow Light Snow
10:54 AM 19.9 °F 12.1 °F 15.1 °F 81% 29.99 in 2.0 mi South 5.8 mph - 0.00 in Snow Light Snow
11:05 AM 19.4 °F 12.8 °F 15.8 °F 86% 29.92 in 3.0 mi SSW 4.6 mph - 0.00 in Snow Light Snow
11:23 AM 19.4 °F 12.8 °F 15.8 °F 86% 29.90 in 1.8 mi SW 4.6 mph - 0.00 in Snow Light Snow
11:54 AM 19.9 °F 12.1 °F 16.0 °F 85% 29.95 in 1.5 mi SW 5.8 mph - 0.00 in Snow Light Snow
12:15 PM 19.4 °F 14.3 °F 15.8 °F 86% 29.86 in 2.0 mi SW 3.5 mph - 0.00 in Snow Light Snow
12:54 PM 21.0 °F 13.4 °F 16.0 °F 81% 29.91 in 3.0 mi SW 5.8 mph - 0.00 in Snow Light Snow
1:13 PM 21.2 °F 11.7 °F 15.8 °F 80% 29.83 in 2.5 mi SW 8.1 mph - 0.00 in Snow Light Snow
1:23 PM 21.2 °F 13.6 °F 17.6 °F 86% 29.82 in 1.2 mi SW 5.8 mph - 0.00 in Snow Light Snow
1:54 PM 21.0 °F 10.6 °F 16.0 °F 81% 29.89 in 1.0 mi WSW 9.2 mph - 0.00 in Snow Light Snow
2:18 PM 21.2 °F 13.6 °F 17.6 °F 86% 29.81 in 2.0 mi Variable 5.8 mph - 0.00 in Snow Light Snow
2:34 PM 21.2 °F 13.6 °F 17.6 °F 86% 29.81 in 1.0 mi SW 5.8 mph - 0.00 in Snow Light Snow
2:41 PM 21.2 °F 12.6 °F 17.6 °F 86% 29.81 in 0.5 mi WSW 6.9 mph - 0.00 in Fog , Snow Snow
2:54 PM 19.9 °F 5.7 °F 17.1 °F 89% 29.89 in 0.5 mi WNW 16.1 mph 20.7 mph 0.00 in Fog , Snow Snow
3:13 PM 19.4 °F 10.4 °F 15.8 °F 86% 29.83 in 1.0 mi WNW 6.9 mph - 0.00 in Snow Light Snow
3:29 PM 19.4 °F 7.9 °F 12.2 °F 74% 29.83 in 3.0 mi West 10.4 mph 18.4 mph 0.00 in Snow Light Snow
3:37 PM 19.4 °F 6.6 °F 12.2 °F 74% 29.83 in 6.0 mi West 12.7 mph 19.6 mph 0.00 in   Haze
3:54 PM 19.9 °F 11.1 °F 12.9 °F 74% 29.90 in 6.0 mi WSW 6.9 mph - 0.00 in   Haze
4:12 PM 19.4 °F 12.8 °F 14.0 °F 80% 29.84 in 3.0 mi WSW 4.6 mph - 0.00 in Snow Light Snow
4:19 PM 19.4 °F 11.5 °F 15.8 °F 86% 29.84 in 2.0 mi SW 5.8 mph - 0.00 in Snow Light Snow
4:31 PM 19.4 °F 10.4 °F 14.0 °F 80% 29.84 in 3.0 mi Variable 6.9 mph - 0.00 in Snow Light Snow
4:54 PM 19.0 °F 12.3 °F 12.9 °F 77% 29.92 in 4.0 mi West 4.6 mph - 0.00 in Snow Light Snow
5:54 PM 18.0 °F 9.8 °F 12.9 °F 81% 29.94 in 4.0 mi WSW 5.8 mph - 0.00 in Snow Light Snow
6:03 PM 17.6 °F 9.3 °F 14.0 °F 86% 29.86 in 1.5 mi WSW 5.8 mph - 0.00 in Snow Light Snow
6:14 PM 17.6 °F 9.3 °F 14.0 °F 86% 29.87 in 3.0 mi WSW 5.8 mph - 0.00 in Snow Light Snow
6:43 PM 17.6 °F 8.2 °F 8.6 °F 68% 29.87 in 9.0 mi West 6.9 mph 19.6 mph 0.00 in   Mostly Cloudy
6:54 PM 18.0 °F 7.7 °F 9.0 °F 68% 29.95 in 10.0 mi West 8.1 mph 20.7 mph 0.00 in   Mostly Cloudy
7:26 PM 15.8 °F 2.7 °F 8.6 °F 73% 29.88 in 1.8 mi West 11.5 mph 25.3 mph 0.00 in Snow Light Snow
7:43 PM 15.8 °F 4.2 °F 10.4 °F 79% 29.88 in 3.0 mi West 9.2 mph 18.4 mph 0.00 in Snow Light Snow
7:50 PM 15.8 °F 5.1 °F 10.4 °F 79% 29.88 in 2.0 mi West 8.1 mph - 0.00 in Snow Light Snow
7:54 PM 15.1 °F 5.2 °F 10.0 °F 80% 29.96 in 2.5 mi West 6.9 mph - 0.00 in Snow Light Snow
8:01 PM 15.8 °F 3.4 °F 8.6 °F 73% 29.88 in 8.0 mi West 10.4 mph - 0.00 in   Mostly Cloudy
8:12 PM 15.8 °F 4.2 °F 6.8 °F 68% 29.87 in 10.0 mi West 9.2 mph 20.7 mph 0.00 in   Scattered Clouds
8:54 PM 14.0 °F 2.9 °F 3.9 °F 64% 29.96 in 10.0 mi West 8.1 mph - 0.00 in   Scattered Clouds
9:54 PM 12.9 °F -2.8 °F 3.0 °F 65% 29.97 in 6.0 mi West 15.0 mph 21.9 mph 0.00 in Snow Light Snow
10:54 PM 10.9 °F -4.7 °F -0.0 °F 61% 29.98 in 10.0 mi West 13.8 mph 23.0 mph 0.00 in   Clear
11:54 PM 10.0 °F -5.2 °F -0.0 °F 64% 29.98 in 10.0 mi West 12.7 mph 19.6 mph N/A   Clear